FW3069 Weather Reports


Display with metric or nautical units.
time (UTC)temp
F
wind
direction
speed
MPH
gust
MPH
rain 1hr
in
rain 24hr
in
rain mn
in
humidity
%
barometer
mb
20191017021510 73 46 3.0 5.0 0.00 0.03 0.00 80 1013.4
20191017020005 73 43 2.0 4.0 0.00 0.03 0.00 83 1013.2
20191017014505 73 40 1.0 4.0 0.00 0.03 0.00 83 1012.9
20191017013251 72 2 1.0 4.0 0.00 0.03 0.00 83 1012.9
20191017011832 72 9 0.0 3.0 0.00 0.03 0.00 84 1012.7
20191017010147 72 29 1.0 3.0 0.00 0.03 0.00 84 1012.7
20191017004622 72 48 1.0 4.0 0.00 0.03 0.00 84 1012.4
20191017003155 72 34 1.0 3.0 0.00 0.03 0.00 84 1012.2
20191017001557 72 30 0.0 3.0 0.00 0.03 0.00 84 1012.2
20191017000135 72 31 0.0 2.0 0.00 0.03 0.00 84 1012.1
20191016234619 71 36 0.0 0.0 0.00 0.03 0.00 84 1011.9
20191016233142 71 40 0.0 0.0 0.00 0.03 0.00 83 1011.8
20191016231617 71 40 0.0 0.0 0.00 0.03 0.00 83 1011.7
20191016230127 71 41 0.0 0.0 0.00 0.03 0.00 82 1011.7
20191016224650 71 39 0.0 2.0 0.00 0.03 0.00 82 1011.6
20191016223118 71 40 0.0 2.0 0.00 0.03 0.00 82 1011.5
20191016221635 71 41 0.0 2.0 0.00 0.03 0.00 81 1011.4
20191016220134 71 41 0.0 2.0 0.00 0.03 0.00 81 1011.5
20191016214645 72 42 0.0 2.0 0.00 0.03 0.00 81 1011.6
20191016213233 72 40 0.0 3.0 0.00 0.03 0.00 81 1011.7
20191016211549 71 41 0.0 2.0 0.00 0.03 0.00 81 1011.8
20191016210139 71 40 0.0 0.0 0.00 0.03 0.00 80 1012.0
20191016204606 72 40 0.0 0.0 0.00 0.03 0.00 80 1012.1
20191016203044 72 40 0.0 0.0 0.00 0.03 0.00 79 1012.3
20191016201630 72 40 0.0 0.0 0.00 0.03 0.00 78 1012.4
20191016200119 72 40 0.0 0.0 0.00 0.03 0.00 78 1012.5
20191016194608 73 40 0.0 0.0 0.00 0.03 0.00 77 1012.8
20191016193058 73 40 0.0 1.0 0.00 0.03 0.00 77 1012.9
20191016191531 73 40 0.0 2.0 0.00 0.03 0.00 77 1012.9
20191016190103 73 40 0.0 1.0 0.00 0.03 0.00 76 1013.0
20191016184532 73 40 0.0 1.0 0.00 0.03 0.00 76 1012.9
20191016183048 73 40 0.0 3.0 0.00 0.03 0.00 76 1012.9
20191016181600 73 23 0.0 2.0 0.00 0.03 0.03 76 1013.0
20191016180105 73 22 0.0 2.0 0.00 0.03 0.03 76 1012.9
20191016174611 73 19 0.0 3.0 0.00 0.03 0.03 76 1013.1
20191016173053 73 13 0.0 2.0 0.00 0.03 0.03 75 1013.0
20191016171541 74 12 0.0 3.0 0.00 0.03 0.03 75 1013.0
20191016170106 74 16 0.0 2.0 0.00 0.03 0.03 75 1013.1
20191016164543 74 29 0.0 3.0 0.00 0.03 0.03 75 1013.1
20191016163034 74 33 0.0 3.0 0.00 0.03 0.03 75 1013.3
20191016161539 74 33 0.0 3.0 0.00 0.03 0.03 75 1013.2
20191016160026 74 31 0.0 2.0 0.00 0.03 0.03 75 1013.0
20191016154526 74 30 0.0 2.0 0.00 0.03 0.03 75 1013.0
20191016153026 74 4 0.0 3.0 0.00 0.03 0.03 75 1012.9
20191016151553 74 25 0.0 3.0 0.00 0.03 0.03 75 1012.9
20191016150022 74 29 0.0 3.0 0.00 0.03 0.03 75 1012.6
20191016144537 74 12 0.0 2.0 0.00 0.03 0.03 74 1012.4
20191016143053 74 11 0.0 2.0 0.00 0.03 0.03 75 1012.0
20191016141521 74 42 0.0 2.0 0.00 0.03 0.03 74 1011.6
20191016140031 74 359 0.0 1.0 0.00 0.03 0.03 74 1011.3
20191016134524 74 358 1.0 2.0 0.00 0.03 0.03 74 1011.1
20191016133019 74 358 0.0 2.0 0.00 0.03 0.03 74 1010.8
20191016131534 75 355 0.0 3.0 0.00 0.03 0.03 73 1010.7
20191016130039 75 9 1.0 2.0 0.00 0.03 0.03 73 1010.3
20191016124515 75 33 0.0 2.0 0.00 0.03 0.03 73 1010.3
20191016123016 75 40 0.0 3.0 0.00 0.03 0.03 73 1010.3
20191016121523 75 277 1.0 4.0 0.00 0.03 0.03 73 1010.3
20191016120044 75 21 1.0 3.0 0.00 0.03 0.03 72 1010.3
20191016114513 76 278 0.0 4.0 0.00 0.03 0.03 71 1010.2
20191016113022 76 281 2.0 4.0 0.00 0.03 0.03 70 1010.1
20191016111513 76 281 2.0 7.0 0.00 0.03 0.03 70 1009.9
20191016110017 76 279 2.0 4.0 0.00 0.03 0.03 71 1010.0
20191016104534 76 352 0.0 1.0 0.00 0.03 0.03 72 1010.0
20191016103017 75 352 0.0 2.0 0.00 0.03 0.03 72 1009.8
20191016101533 75 7 1.0 4.0 0.00 0.03 0.03 73 1009.8
20191016100024 75 23 2.0 4.0 0.00 0.03 0.03 73 1009.9
20191016094500 75 44 2.0 6.0 0.00 0.03 0.03 73 1010.3
20191016093237 76 13 2.0 7.0 0.00 0.03 0.03 73 1010.4
20191016090210 75 52 3.0 9.0 0.02 0.03 0.03 73 1010.8
20191016084726 74 33 2.0 9.0 0.02 0.03 0.03 75 1011.0
20191016083244 73 56 1.0 7.0 0.02 0.03 0.03 76 1011.3
20191016081703 73 4 1.0 4.0 0.02 0.03 0.03 77 1011.5
20191016080208 73 26 2.0 7.0 0.00 0.01 0.01 75 1012.1
20191016074717 73 60 4.0 8.0 0.00 0.01 0.01 76 1012.2
20191016073149 74 353 2.0 8.0 0.01 0.01 0.01 75 1012.5
20191016071702 75 71 4.0 10.0 0.01 0.01 0.01 70 1012.6
20191016070143 75 69 5.0 15.0 0.01 0.01 0.01 72 1012.8
20191016064704 75 15 4.0 10.0 0.01 0.01 0.01 74 1013.0
20191016063149 77 43 3.0 10.0 0.00 0.00 0.00 67 1013.1
20191016061703 77 57 4.0 11.0 0.00 0.00 0.00 67 1013.3
20191016060154 79 5 4.0 15.0 0.00 0.00 0.00 66 1013.4
20191016054713 78 69 5.0 11.0 0.00 0.00 0.00 69 1013.4
20191016053105 78 39 5.0 9.0 0.00 0.00 0.00 69 1013.5
20191016051711 78 69 4.0 11.0 0.00 0.00 0.00 69 1013.7
20191016050119 78 82 2.0 10.0 0.00 0.00 0.00 69 1013.8
20191016044610 78 8 3.0 12.0 0.00 0.00 0.00 69 1013.9
20191016043129 78 53 4.0 10.0 0.00 0.00 0.00 69 1013.9
20191016041606 77 60 3.0 7.0 0.00 0.00 0.00 70 1014.1
20191016040140 77 26 4.0 10.0 0.00 0.00 0.00 70 1014.2
20191016034542 76 347 1.0 7.0 0.00 0.00 0.00 71 1014.1
20191016033057 76 1 4.0 7.0 0.00 0.00 0.00 72 1014.0
20191016031546 75 18 1.0 4.0 0.00 0.00 0.00 73 1013.9
20191016030043 75 344 2.0 4.0 0.00 0.00 0.00 74 1013.4
20191016024610 75 45 1.0 5.0 0.00 0.00 0.00 75 1013.3
20191016023047 75 81 1.0 5.0 0.00 0.00 0.00 75 1013.0